When you browse on this site, cookies collect data to enhance your experience and personalize the content and advertising you see.
Visit our Privacy Policy to learn more. By continuing to use the site, you agree to this use of cookies and data.
  • In Österreich
  • Länderverzeichnis
  • Für 7 Tage
  • Wassertemperatur
  • Satellitenkarten
  • Wetterkarte
  • News
  • Widgets
  • user-avatar
    Anmelden

    Stündliche Wetter Tamarac

    Heute, 22 Juli, Montag

    Zeit Temperatur Niederschläge Wind Luftdruck Luftfeuchtigkeit
    00:00 +30°C° 0 mm 3 m/S 761 mmHg 68%
    01:00 +30°C° 0 mm 1 m/S 762 mmHg 72%
    02:00 +30°C° 0 mm 2 m/S 761 mmHg 72%
    03:00 +29°C° 0 mm 2 m/S 761 mmHg 72%
    04:00 +29°C° 0 mm 3 m/S 760 mmHg 72%
    05:00 +30°C° 0.2 mm 3 m/S 761 mmHg 72%
    06:00 +30°C° 0.2 mm 3 m/S 761 mmHg 71%
    07:00 +30°C° 0.2 mm 3 m/S 761 mmHg 71%
    08:00 +31°C° 0 mm 3 m/S 761 mmHg 66%
    09:00 +33°C° 0 mm 3 m/S 761 mmHg 61%
    10:00 +34°C° 0 mm 3 m/S 762 mmHg 56%
    11:00 +35°C° 0 mm 4 m/S 762 mmHg 53%
    12:00 +36°C° 0 mm 4 m/S 761 mmHg 50%
    13:00 +36°C° 0 mm 4 m/S 761 mmHg 46%
    14:00 +36°C° 0 mm 5 m/S 761 mmHg 48%
    15:00 +36°C° 0 mm 5 m/S 761 mmHg 50%
    16:00 +36°C° 0 mm 5 m/S 760 mmHg 52%
    17:00 +34°C° 0 mm 5 m/S 760 mmHg 56%
    18:00 +33°C° 0 mm 4 m/S 760 mmHg 60%
    19:00 +32°C° 0 mm 4 m/S 760 mmHg 64%
    20:00 +31°C° 0 mm 3 m/S 760 mmHg 65%
    21:00 +31°C° 0 mm 3 m/S 760 mmHg 67%
    22:00 +31°C° 0 mm 2 m/S 761 mmHg 68%
    23:00 +30°C° 0 mm 2 m/S 760 mmHg 68%

    Morgen, 23 Juli, Dienstag

    Zeit Temperatur Niederschläge Wind Luftdruck Luftfeuchtigkeit
    00:00 +30°C° 0 mm 1 m/S 760 mmHg 69%
    01:00 +30°C° 0 mm 1 m/S 760 mmHg 69%
    02:00 +30°C° 0 mm 1 m/S 760 mmHg 70%
    03:00 +30°C° 0 mm 1 m/S 759 mmHg 71%
    04:00 +29°C° 0 mm 2 m/S 759 mmHg 72%
    05:00 +29°C° 0 mm 2 m/S 760 mmHg 72%
    06:00 +29°C° 0 mm 2 m/S 760 mmHg 71%
    07:00 +30°C° 0 mm 2 m/S 760 mmHg 70%
    08:00 +31°C° 0 mm 2 m/S 760 mmHg 64%
    09:00 +33°C° 0 mm 3 m/S 761 mmHg 58%
    10:00 +35°C° 0 mm 3 m/S 761 mmHg 52%
    11:00 +35°C° 0 mm 3 m/S 761 mmHg 49%
    12:00 +36°C° 0 mm 4 m/S 760 mmHg 47%
    13:00 +37°C° 0 mm 4 m/S 760 mmHg 45%
    14:00 +36°C° 0.2 mm 5 m/S 760 mmHg 48%
    15:00 +36°C° 0.2 mm 5 m/S 760 mmHg 51%
    16:00 +35°C° 0.2 mm 5 m/S 759 mmHg 54%
    17:00 +35°C° 1.2 mm 4 m/S 759 mmHg 56%
    18:00 +34°C° 1.2 mm 4 m/S 759 mmHg 58%
    19:00 +33°C° 1.2 mm 3 m/S 760 mmHg 60%
    20:00 +33°C° 1.1 mm 3 m/S 760 mmHg 61%
    21:00 +31°C° 1.1 mm 3 m/S 760 mmHg 63%
    22:00 +31°C° 1.1 mm 3 m/S 761 mmHg 65%
    23:00 +30°C° 0.1 mm 3 m/S 760 mmHg 66%

    übermorgen, 24 Juli, Mittwoch

    Zeit Temperatur Niederschläge Wind Luftdruck Luftfeuchtigkeit
    00:00 +30°C° 0.1 mm 2 m/S 760 mmHg 68%
    01:00 +29°C° 0.1 mm 2 m/S 760 mmHg 69%
    02:00 +29°C° 0 mm 2 m/S 760 mmHg 70%
    03:00 +29°C° 0 mm 2 m/S 760 mmHg 70%
    04:00 +29°C° 0 mm 2 m/S 760 mmHg 71%
    05:00 +29°C° 0 mm 2 m/S 760 mmHg 70%
    06:00 +30°C° 0 mm 2 m/S 760 mmHg 70%
    07:00 +30°C° 0 mm 2 m/S 760 mmHg 69%
    08:00 +31°C° 0 mm 2 m/S 761 mmHg 63%
    09:00 +33°C° 0 mm 3 m/S 761 mmHg 57%
    10:00 +35°C° 0 mm 3 m/S 761 mmHg 50%
    11:00 +36°C° 0 mm 4 m/S 761 mmHg 48%
    12:00 +36°C° 0 mm 4 m/S 761 mmHg 45%
    13:00 +37°C° 0 mm 4 m/S 760 mmHg 43%
    14:00 +37°C° 0.2 mm 5 m/S 760 mmHg 43%
    15:00 +37°C° 0.2 mm 5 m/S 760 mmHg 44%
    16:00 +38°C° 0.2 mm 6 m/S 759 mmHg 44%
    17:00 +36°C° 0.1 mm 5 m/S 760 mmHg 49%
    18:00 +35°C° 0.1 mm 5 m/S 760 mmHg 53%
    19:00 +34°C° 0.1 mm 5 m/S 760 mmHg 57%
    20:00 +33°C° 0 mm 4 m/S 761 mmHg 61%
    21:00 +33°C° 0 mm 4 m/S 761 mmHg 64%
    22:00 +32°C° 0 mm 4 m/S 762 mmHg 67%
    23:00 +30°C° 0 mm 3 m/S 761 mmHg 68%

    25 Juli, Donnerstag

    Zeit Temperatur Niederschläge Wind Luftdruck Luftfeuchtigkeit
    00:00 +30°C° 0 mm 3 m/S 761 mmHg 69%
    01:00 +30°C° 0 mm 2 m/S 761 mmHg 71%
    02:00 +30°C° 0 mm 2 m/S 761 mmHg 71%
    03:00 +30°C° 0 mm 2 m/S 761 mmHg 71%
    04:00 +30°C° 0 mm 2 m/S 761 mmHg 71%
    05:00 +30°C° 0 mm 2 m/S 761 mmHg 70%
    06:00 +30°C° 0 mm 2 m/S 761 mmHg 69%
    07:00 +30°C° 0 mm 2 m/S 762 mmHg 68%
    08:00 +31°C° 0 mm 2 m/S 762 mmHg 62%
    09:00 +34°C° 0 mm 2 m/S 762 mmHg 56%
    10:00 +35°C° 0 mm 3 m/S 763 mmHg 50%
    11:00 +36°C° 0 mm 3 m/S 762 mmHg 47%
    12:00 +37°C° 0 mm 3 m/S 762 mmHg 44%
    13:00 +37°C° 0 mm 3 m/S 762 mmHg 42%
    14:00 +37°C° 0 mm 3 m/S 762 mmHg 44%
    15:00 +37°C° 0 mm 4 m/S 762 mmHg 46%
    16:00 +36°C° 0 mm 4 m/S 761 mmHg 49%
    17:00 +35°C° 1.4 mm 3 m/S 762 mmHg 52%
    18:00 +35°C° 1.4 mm 3 m/S 762 mmHg 55%
    19:00 +34°C° 1.4 mm 3 m/S 762 mmHg 58%
    20:00 +33°C° 1.3 mm 3 m/S 763 mmHg 60%
    21:00 +32°C° 1.3 mm 2 m/S 763 mmHg 62%
    22:00 +31°C° 1.3 mm 2 m/S 764 mmHg 64%
    23:00 +31°C° 0.1 mm 2 m/S 763 mmHg 65%

    26 Juli, Freitag

    Zeit Temperatur Niederschläge Wind Luftdruck Luftfeuchtigkeit
    00:00 +31°C° 0.1 mm 2 m/S 763 mmHg 67%
    01:00 +30°C° 0.1 mm 2 m/S 763 mmHg 69%
    02:00 +30°C° 0 mm 2 m/S 762 mmHg 69%
    03:00 +30°C° 0 mm 1 m/S 762 mmHg 70%
    04:00 +30°C° 0 mm 1 m/S 762 mmHg 71%
    05:00 +30°C° 0 mm 1 m/S 763 mmHg 71%
    06:00 +30°C° 0 mm 1 m/S 763 mmHg 71%
    07:00 +30°C° 0 mm 2 m/S 763 mmHg 71%
    08:00 +31°C° 0 mm 1 m/S 764 mmHg 65%
    09:00 +33°C° 0 mm 1 m/S 764 mmHg 60%
    10:00 +34°C° 0 mm 1 m/S 764 mmHg 54%
    11:00 +36°C° 0 mm 2 m/S 764 mmHg 51%
    12:00 +37°C° 0 mm 3 m/S 764 mmHg 48%
    13:00 +37°C° 0 mm 4 m/S 764 mmHg 45%
    14:00 +37°C° 0 mm 4 m/S 764 mmHg 47%
    15:00 +37°C° 0 mm 4 m/S 763 mmHg 48%
    16:00 +36°C° 0 mm 4 m/S 763 mmHg 50%
    17:00 +36°C° 0 mm 4 m/S 763 mmHg 53%
    18:00 +35°C° 0 mm 4 m/S 763 mmHg 57%
    19:00 +34°C° 0 mm 4 m/S 763 mmHg 60%
    20:00 +33°C° 0.1 mm 4 m/S 764 mmHg 62%
    21:00 +33°C° 0.1 mm 3 m/S 764 mmHg 63%
    22:00 +31°C° 0.1 mm 3 m/S 765 mmHg 64%
    23:00 +31°C° 0 mm 3 m/S 765 mmHg 67%

    27 Juli, Samstag

    Zeit Temperatur Niederschläge Wind Luftdruck Luftfeuchtigkeit
    00:00 +31°C° 0 mm 3 m/S 764 mmHg 70%
    01:00 +30°C° 0 mm 3 m/S 764 mmHg 73%
    02:00 +30°C° 0.1 mm 3 m/S 764 mmHg 74%
    03:00 +30°C° 0.1 mm 3 m/S 764 mmHg 76%
    04:00 +30°C° 0.1 mm 3 m/S 763 mmHg 77%
    05:00 +30°C° 0.2 mm 3 m/S 764 mmHg 76%
    06:00 +31°C° 0.2 mm 3 m/S 764 mmHg 74%
    07:00 +31°C° 0.2 mm 3 m/S 765 mmHg 72%
    08:00 +33°C° 0 mm 3 m/S 765 mmHg 67%
    09:00 +34°C° 0 mm 3 m/S 765 mmHg 61%
    10:00 +35°C° 0 mm 4 m/S 765 mmHg 55%
    11:00 +35°C° 0 mm 4 m/S 765 mmHg 53%
    12:00 +36°C° 0 mm 4 m/S 765 mmHg 52%
    13:00 +37°C° 0 mm 4 m/S 765 mmHg 50%
    14:00 +36°C° 0 mm 4 m/S 764 mmHg 50%
    15:00 +36°C° 0 mm 5 m/S 764 mmHg 50%
    16:00 +36°C° 0 mm 5 m/S 764 mmHg 50%
    17:00 +35°C° 0 mm 4 m/S 764 mmHg 54%
    18:00 +34°C° 0 mm 4 m/S 764 mmHg 57%
    19:00 +33°C° 0 mm 4 m/S 764 mmHg 61%
    20:00 +33°C° 0 mm 4 m/S 764 mmHg 63%
    21:00 +33°C° 0 mm 4 m/S 765 mmHg 66%
    22:00 +32°C° 0 mm 4 m/S 765 mmHg 68%
    23:00 +32°C° 0.2 mm 4 m/S 765 mmHg 68%
    Mehr zeigen